Home > Weather > Warsaw > Past weeks

Flag for Poland Past Weather in Warsaw, Poland — Yesterday and Last 2 Weeks

Now
64 °F

Passing clouds.


Feels Like: 64 °F
Forecast: 54 / 73 °F
Wind: 6 mph from Northwest

Location: Warsaw Okecie Airport

Current Time: May 26, 2016 at 12:48:33 PM

Latest Report: May 26, 2016 at 12:00 PM


Visibility: N/A

Pressure: 29.98 "Hg

Humidity: 73%

Dew Point: 55 °F

Location of WarsawLocation

Past Weather in Warsaw — Graph

°F

Warsaw Temperature Yesterday

Maximum temperature yesterday: 73 °F (at 11:30 AM)
Minimum temperature yesterday: 55 °F (at 4:30 AM)
Average temperature yesterday: 65 °F

High & Low Weather Summary for the Past Weeks

 TemperatureHumidityPressure
High81 °F (May 23, 1:00 PM)100% (May 18, 1:00 AM)30.07 "Hg (May 18, 1:00 AM)
Low39 °F (May 16, 3:00 AM)24% (May 24, 3:30 PM)29.39 "Hg (May 13, 3:30 PM)
Average59 °F65%29.83 "Hg
* Reported May 11 12:00 PM — May 26 12:00 PM, Warsaw, Weather by CustomWeather, © 2016

Note: Actual official high and low records may vary slightly from our data, if they occured in-between our weather recording intervals... More about our weather records

Advertising

Warsaw Weather History for the Previous 24 Hours

Scroll right to see more
 ConditionsComfort  
Time TempWeatherWind HumidityBarometerVisibility
12:00 PM
Thu, May 26
64 °FPassing clouds.6 mph73%29.98 "HgN/A
11:30 AM61 °FPartly sunny.7 mph77%29.98 "HgN/A
11:00 AM59 °FPartly sunny.8 mph82%29.98 "HgN/A
10:30 AM57 °FPartly sunny.7 mph88%29.98 "HgN/A
10:00 AM57 °FPartly sunny.8 mph88%29.95 "HgN/A
9:30 AM59 °FBroken clouds.9 mph82%29.95 "HgN/A
9:00 AM61 °FPassing clouds.8 mph83%29.95 "HgN/A
8:30 AM63 °FPassing clouds.6 mph83%29.92 "HgN/A
8:00 AM61 °FPassing clouds.7 mph83%29.92 "HgN/A
7:30 AM59 °FSunny.7 mph82%29.92 "Hg10 mi
7:00 AM59 °FSunny.7 mph82%29.89 "Hg10 mi
6:30 AM55 °FSunny.7 mph94%29.89 "Hg10 mi
6:00 AM55 °FPassing clouds.5 mph94%29.89 "HgN/A
5:30 AM54 °FSunny.7 mph100%29.89 "Hg10 mi
5:00 AM54 °FFog.2 mph100%29.86 "HgN/A
4:30 AM52 °FFog.3 mph100%29.86 "HgN/A
4:00 AM52 °FClear.6 mph100%29.86 "Hg10 mi
3:30 AM54 °FClear.5 mph100%29.86 "Hg10 mi
3:00 AM54 °FClear.5 mph100%29.86 "Hg10 mi
2:30 AM54 °FClear.3 mph100%29.86 "Hg10 mi
2:00 AM54 °FClear.7 mph100%29.86 "Hg10 mi
1:30 AM54 °FClear.6 mph94%29.86 "Hg10 mi
1:00 AM54 °FClear.5 mph100%29.86 "Hg10 mi
12:30 AM54 °FClear.3 mph100%29.86 "Hg10 mi
12:00 AM57 °FClear.2 mph94%29.86 "Hg10 mi
11:30 PM
Wed, May 25
55 °FPassing clouds.3 mph94%29.83 "HgN/A
11:00 PM57 °FClear.3 mph94%29.83 "Hg10 mi
10:30 PM57 °FClear.2 mph88%29.83 "Hg10 mi
10:00 PM61 °FClear.2 mph83%29.83 "Hg10 mi
9:30 PM61 °FSunny.3 mph77%29.83 "Hg10 mi
9:00 PM61 °FSunny.6 mph77%29.83 "Hg10 mi
8:30 PM63 °FSunny.7 mph73%29.80 "Hg10 mi
8:00 PM63 °FSunny.7 mph73%29.80 "Hg10 mi
7:30 PM66 °FPassing clouds.3 mph64%29.80 "HgN/A
7:00 PM66 °FPassing clouds.3 mph68%29.80 "HgN/A
6:30 PM66 °FPassing clouds.5 mph68%29.80 "HgN/A
6:00 PM64 °FPassing clouds.5 mph73%29.80 "HgN/A
5:30 PM61 °FSprinkles. Scattered clouds.8 mph83%29.77 "HgN/A
5:00 PM63 °FSprinkles. Partly sunny.14 mph73%29.80 "HgN/A
4:30 PM70 °FThunderstorms. Partly sunny.3 mph57%29.80 "HgN/A
4:00 PM70 °FScattered clouds.5 mph53%29.77 "HgN/A
3:30 PM70 °FThunderstorms. Scattered clouds.6 mph53%29.80 "HgN/A
3:00 PM72 °FScattered clouds.10 mph53%29.77 "HgN/A
2:30 PM73 °FScattered clouds.5 mph50%29.80 "HgN/A
2:00 PM72 °FPassing clouds.9 mph53%29.80 "HgN/A
1:30 PM72 °FSprinkles. Scattered clouds.9 mph47%29.80 "HgN/A
1:00 PM73 °FPassing clouds.7 mph44%29.80 "HgN/A
12:30 PM72 °FPassing clouds.7 mph44%29.80 "HgN/A
12:00 PM73 °FPassing clouds.7 mph41%29.80 "HgN/A
Weather by CustomWeather, © 2016

See weather overviewHow to use our weather pages